Home > Weather > Montgomery > Past weeks

Flag for USA Weather for the Past 2 Weeks in Montgomery, Alabama, USA

Now
84 °F

Sunny.


Feels Like: 87 °F
Forecast: 67 / 89 °F
Wind: 6 mph from South

Location: Maxwell Air Force Base / Montgomery

Current Time: Apr 30, 2016 at 5:40:06 PM

Latest Report: Apr 30, 2016 at 4:58 PM


Visibility: 10 mi

Pressure: 29.88 "Hg

Humidity: 60%

Dew Point: 68 °F

Location of MontgomeryLocation

Historic Weather in Montgomery — Graph

°F

Montgomery Temperature Yesterday

Maximum temperature yesterday: 87 °F (at 3:58 PM)
Minimum temperature yesterday: 65 °F (at 5:58 AM)
Average temperature yesterday: 74 °F

High & Low Weather Summary for the Past Weeks

 TemperatureHumidityPressure
High87 °F (Apr 29, 3:58 PM)100% (Apr 22, 8:03 AM)30.34 "Hg (Apr 22, 8:03 AM)
Low48 °F (Apr 18, 5:58 AM)24% (Apr 18, 3:58 PM)29.80 "Hg (Apr 27, 3:58 PM)
Average69 °F73%30.04 "Hg
* Reported Apr 15 3:50 PM — Apr 30 3:58 PM, Montgomery, Weather by CustomWeather, © 2016

Note: Actual official high and low records may vary slightly from our data, if they occured in-between our weather recording intervals... More about our weather records

Advertising

Montgomery Weather History for the Previous 24 Hours

Scroll right to see more
 ConditionsComfort  
Time TempWeatherWind HumidityBarometerVisibility
3:58 PM
Sat, Apr 30
85 °FOvercast.7 mph55%29.89 "Hg10 mi
2:58 PM86 °FMostly cloudy.8 mph50%29.90 "Hg10 mi
1:58 PM85 °FPartly sunny.7 mph52%29.90 "Hg10 mi
12:58 PM87 °FScattered clouds.7 mph50%29.90 "Hg10 mi
11:58 AM83 °FPartly sunny.8 mph59%29.92 "Hg10 mi
10:58 AM80 °FPartly sunny.2 mph66%29.95 "Hg10 mi
9:58 AM77 °FPassing clouds.6 mph68%29.94 "Hg10 mi
8:58 AM71 °FSunny.2 mph90%29.94 "Hg10 mi
7:58 AM67 °FSunny.3 mph96%29.93 "Hg10 mi
6:58 AM65 °FClear.2 mph99%29.91 "Hg10 mi
5:58 AM65 °FClear.No wind98%29.88 "Hg9 mi
4:58 AM67 °FClear.3 mph92%29.88 "Hg10 mi
3:58 AM66 °FClear.5 mph95%29.88 "Hg10 mi
2:58 AM65 °FClear.5 mph96%29.89 "Hg10 mi
1:58 AM65 °FClear.3 mph96%29.90 "Hg10 mi
12:58 AM66 °FPassing clouds.6 mph95%29.92 "Hg10 mi
11:58 PM
Fri, Apr 29
67 °FClear.5 mph89%29.94 "Hg10 mi
10:58 PM67 °FClear.2 mph92%29.96 "Hg10 mi
9:58 PM67 °FThundershowers. Passing clouds.9 mph93%30.01 "Hg9 mi
9:01 PM72 °FThunderstorms. Overcast.23 mph73%29.96 "Hg10 mi
7:58 PM79 °FMostly cloudy.2 mph88%29.92 "Hg10 mi
6:58 PM82 °FSunny.1 mph76%29.90 "Hg10 mi
5:58 PM84 °FScattered clouds.3 mph62%29.89 "Hg10 mi
Weather by CustomWeather, © 2016

See weather overviewHow to use our weather pages